Location: Miami, Florida
(25.6830°N, 80.1700°W)
Time: 22:23:24
(UTC-04:00)

Hubble Space Telescope - Visible Passes

Search period start: 20 January 2018 00:00
Search period end: 30 January 2018 00:00
Orbit: 537 x 541 km, 28.5° (Epoch: 20 January)

Date Brightness Start Highest point End Pass type
(mag) Time Alt. Az. Time Alt. Az. Time Alt. Az.
20 Jan 1.7 20:23:37 10° SW 20:27:21 34° SSE 20:27:40 33° SSE visible
21 Jan 1.4 20:13:09 10° SW 20:17:05 43° SSE 20:18:08 35° ESE visible
22 Jan 1.1 20:02:46 10° WSW 20:06:48 54° SSE 20:08:34 30° E visible
22 Jan 4.1 21:43:55 10° W 21:43:56 10° W 21:43:56 10° W visible
23 Jan 0.8 19:52:26 10° WSW 19:56:32 68° SSE 19:58:58 23° E visible
23 Jan 3.8 21:33:44 10° W 21:34:20 14° W 21:34:20 14° W visible
24 Jan 0.7 19:42:10 10° WSW 19:46:17 82° SSE 19:49:22 17° ENE visible
24 Jan 3.4 21:23:33 10° W 21:24:44 18° WNW 21:24:44 18° WNW visible
25 Jan 0.8 19:31:55 10° WSW 19:36:03 85° NNW 19:39:46 13° ENE visible
25 Jan 2.9 21:13:21 10° W 21:15:07 24° WNW 21:15:07 24° WNW visible
26 Jan 0.8 19:21:43 10° W 19:25:50 74° N 19:29:57 10° ENE visible
26 Jan 2.4 21:03:09 10° WNW 21:05:31 31° WNW 21:05:31 31° WNW visible
27 Jan 1.7 20:52:56 10° WNW 20:55:55 42° NW 20:55:55 42° NW visible
28 Jan 1.0 20:42:43 10° WNW 20:46:21 59° NNW 20:46:21 59° NNW visible
29 Jan 0.6 20:32:29 10° WNW 20:36:37 72° N 20:36:50 69° NE visible
